Poughkeepsie, NY

7:33 PM EDT on April 30, 2017 (GMT -0400)
Dutchess County

Weather History for KPOU - January, 2014

Change the Weather History Date:

Monday, January 6, 2014

  Actual Average Record
Temperature  
Mean Temperature 40 °F 26 °F  
Max Temperature 58 °F 35 °F 70 °F (2007)
Min Temperature 22 °F 16 °F -3 °F (1976)
Degree Days  
Heating Degree Days 25 39  
Month to date heating degree days 272 234  
Since 1 July heating degree days 2550 2563  
Cooling Degree Days 0 0  
Month to date cooling degree days 0 0  
Year to date cooling degree days 0 0  
Moisture  
Dew Point 37 °F    
Average Humidity 79    
Maximum Humidity 100    
Minimum Humidity 42    
Precipitation  
Precipitation 0.33 in 0.10 in 1.70 in (1962)
Month to date precipitation 0.38 0.61  
Year to date precipitation 0.38 0.61  
Sea Level Pressure  
Sea Level Pressure 29.53 in    
Wind  
Wind Speed 8 mph (SW)    
Max Wind Speed 25 mph    
Max Gust Speed 34 mph    
Visibility 7 miles    
Events Fog , Rain , Snow    
T = Trace of Precipitation, MM = Missing Value Source: NWS Daily Summary

Daily Weather History Graph

Daily Weather History Graph

Search for Another Location

Airport or City:

Trip Planner

Search our weather history database for the weather conditions in past years. The results will help you decide how hot, cold, wet, or windy it might be!

Date:

Astronomy

Jan. 06, 2014 Rise Set
Actual Time 7:22 AM EST 4:40 PM EST
Civil Twilight 6:51 AM EST 5:11 PM EST
Nautical Twilight 6:16 AM EST 5:46 PM EST
Astronomical Twilight 5:43 AM EST 6:20 PM EST
Moon 10:31 AM EST (1/6) 11:16 PM EST (1/6)
Length of Visible Light 10h 20m
Length of Day
9h 18m
Waxing Crescent, 34% of the Moon is Illuminated
Jan 6
Waxing Crescent
Jan 7
First Quarter
Jan 15
Full
Jan 24
Last Quarter
Jan 30
New

Hourly Weather History & Observations

Time (EST) Temp. Windchill Dew Point Humidity Pressure Visibility Wind Dir Wind Speed Gust Speed Precip Events Conditions
12:14 AM 48.2 °F - 46.4 °F 93% 29.71 in 2.5 mi Variable 4.6 mph - 0.02 in Rain Rain
12:28 AM 48.2 °F - 46.4 °F 93% 29.70 in 4.0 mi Variable 4.6 mph - 0.04 in Rain Rain
12:53 AM 50.0 °F - 48.0 °F 93% 29.67 in 7.0 mi Variable 4.6 mph - 0.06 in Rain Light Rain
1:10 AM 50.0 °F - 48.2 °F 94% 29.67 in 2.0 mi SW 3.5 mph - 0.07 in Rain Light Rain
1:28 AM 50.0 °F - 48.2 °F 94% 29.66 in 4.0 mi Calm Calm - 0.11 in Rain Light Rain
1:53 AM 50.0 °F - 48.0 °F 93% 29.64 in 4.0 mi SE 4.6 mph - 0.12 in   Overcast
1:57 AM 46.4 °F - 46.4 °F 100% 29.63 in 1.8 mi Calm Calm - N/A   Overcast
2:16 AM 44.6 °F 42.2 °F 42.8 °F 93% 29.62 in 0.5 mi SE 4.6 mph - 0.00 in Fog Fog
2:30 AM 44.6 °F 42.2 °F 44.6 °F 100% 29.62 in 1.2 mi SSE 4.6 mph - 0.00 in Rain Light Rain
2:41 AM 48.2 °F - 46.4 °F 93% 29.61 in 3.0 mi SSE 4.6 mph - 0.00 in   Overcast
2:51 AM 48.2 °F - 48.2 °F 100% 29.60 in 9.0 mi SSE 3.5 mph - 0.00 in   Overcast
2:53 AM 48.9 °F - 48.9 °F 100% 29.59 in 10.0 mi South 3.5 mph - 0.00 in   Overcast
3:10 AM 51.8 °F - 50.0 °F 94% 29.59 in 8.0 mi Variable 4.6 mph - N/A   Overcast
3:53 AM 52.0 °F - 51.1 °F 97% 29.55 in 8.0 mi South 5.8 mph - N/A   Overcast
4:30 AM 53.6 °F - 51.8 °F 94% 29.52 in 8.0 mi Variable 6.9 mph - 0.00 in   Overcast
4:53 AM 54.0 °F - 52.0 °F 93% 29.49 in 7.0 mi Variable 6.9 mph - 0.00 in   Overcast
5:05 AM 53.6 °F - 51.8 °F 94% 29.50 in 10.0 mi South 6.9 mph - N/A   Overcast
5:53 AM 55.9 °F - 53.1 °F 90% 29.45 in 10.0 mi South 9.2 mph 21.9 mph N/A   Overcast
6:53 AM 55.9 °F - 54.0 °F 93% 29.40 in 10.0 mi South 11.5 mph 20.7 mph N/A   Overcast
7:15 AM 55.4 °F - 53.6 °F 94% 29.39 in 10.0 mi Variable 5.8 mph - N/A   Overcast
7:53 AM 55.9 °F - 54.0 °F 93% 29.35 in 5.0 mi South 6.9 mph - 0.06 in Rain Light Rain
8:03 AM 55.4 °F - 53.6 °F 94% 29.35 in 10.0 mi South 9.2 mph - 0.00 in Rain Light Rain
8:43 AM 57.2 °F - 53.6 °F 88% 29.35 in 10.0 mi South 16.1 mph 27.6 mph 0.00 in   Overcast
8:53 AM 54.0 °F - 48.9 °F 83% 29.40 in 3.0 mi West 23.0 mph 34.5 mph 0.02 in Rain Rain
9:00 AM 51.8 °F - 46.4 °F 82% 29.42 in 6.0 mi West 15.0 mph 29.9 mph 0.00 in Rain Light Rain
9:07 AM 51.8 °F - 44.6 °F 76% 29.42 in 10.0 mi WSW 13.8 mph 24.2 mph 0.00 in Rain Light Rain
9:53 AM 48.0 °F - 41.0 °F 77% 29.47 in 9.0 mi WSW 12.7 mph - 0.01 in Rain Light Rain
10:53 AM 45.0 °F 43.5 °F 42.1 °F 90% 29.44 in 10.0 mi South 3.5 mph - 0.04 in Rain Light Rain
11:53 AM 46.0 °F 41.4 °F 39.0 °F 76% 29.39 in 10.0 mi SW 9.2 mph - 0.00 in   Overcast
12:53 PM 45.0 °F 38.5 °F 35.1 °F 68% 29.40 in 10.0 mi WSW 13.8 mph 20.7 mph 0.01 in Rain Light Rain
1:53 PM 41.0 °F 33.5 °F 30.0 °F 65% 29.43 in 10.0 mi West 13.8 mph - 0.00 in   Overcast
2:53 PM 41.0 °F 32.8 °F 25.0 °F 53% 29.45 in 10.0 mi West 16.1 mph 25.3 mph N/A   Mostly Cloudy
3:53 PM 37.9 °F 29.2 °F 21.9 °F 53% 29.48 in 10.0 mi West 15.0 mph 19.6 mph N/A   Scattered Clouds
4:53 PM 36.0 °F 27.1 °F 19.9 °F 52% 29.50 in 10.0 mi West 13.8 mph - N/A   Overcast
5:53 PM 35.1 °F 25.5 °F 16.0 °F 46% 29.52 in 10.0 mi WNW 15.0 mph - N/A   Overcast
6:53 PM 33.1 °F 24.9 °F 14.0 °F 46% 29.55 in 10.0 mi West 10.4 mph - N/A   Overcast
7:53 PM 33.1 °F 24.9 °F 12.0 °F 42% 29.58 in 10.0 mi WNW 10.4 mph - N/A   Overcast
8:53 PM 32.0 °F 21.6 °F 12.9 °F 45% 29.58 in 10.0 mi WNW 15.0 mph 20.7 mph N/A   Overcast
9:53 PM 30.9 °F 19.4 °F 14.0 °F 50% 29.58 in 10.0 mi West 17.3 mph 23.0 mph N/A   Overcast
10:29 PM 28.4 °F 16.6 °F 19.4 °F 69% 29.61 in 1.8 mi West 16.1 mph 24.2 mph 0.00 in Snow Light Snow
10:36 PM 26.6 °F 15.2 °F 21.2 °F 80% 29.61 in 1.2 mi WSW 13.8 mph - 0.00 in Snow Light Snow
10:42 PM 26.6 °F 16.8 °F 21.2 °F 80% 29.61 in 0.5 mi West 10.4 mph - 0.00 in Snow Snow
10:53 PM 26.1 °F 12.3 °F 18.0 °F 71% 29.60 in 2.5 mi WSW 19.6 mph 27.6 mph 0.00 in Snow Light Snow
11:00 PM 26.6 °F 14.3 °F 15.8 °F 64% 29.61 in 7.0 mi West 16.1 mph 27.6 mph 0.00 in Snow Light Snow
11:14 PM 24.8 °F 9.0 °F 10.4 °F 54% 29.62 in 8.0 mi WSW 25.3 mph 34.5 mph 0.01 in   Overcast
11:53 PM 21.9 °F 8.7 °F 5.0 °F 48% 29.64 in 10.0 mi West 15.0 mph 25.3 mph 0.01 in   Partly Cloudy